OBJECT J, 42833

Orbit data source: Space-Track

You're viewing an Uncataloged Satellite

Recently launched and/or uncataloged satellites may have evolving metadata. Metadata may include but not limited to: Owner, Maufacturer, Bus, Motor, and Mission.

OBJECT J, 42833 is a satellite in SSO that was launched on Fri, 14 Jul 2017 UTC launched from the Tyuratam Missile And Space Complex (TTMTR). Unknown objects in Earth's orbit typically refer to objects detected orbiting the Earth but have not yet been identified or cataloged. These objects could be anything from previously untracked satellites, spent rocket stages, debris from satellite collisions, or even natural meteoroids temporarily captured by Earth's gravity.

Loading next visibility...
Identifier
42833, 2017-042J
Orbit
SSO
Country
Flag of TBDTBD
Related business
Manufacturer
Unknown
Mission
Non-operational spacecraft
Bus & Motor
Unknown
Mass
Unknown
Launch date (UTC)
2017-07-14 (9 years ago)
Launch vehicle
Unknown
Launch site
Tyuratam Missile And Space Complex (TTMTR)
Object type
Unknown
Shape & HBR
Unknown shape, 0.1 m
Radar Cross Section
Small (<0.1 m²)

Expand to show TLE details & history
Last TLE update: 16 hours ago

TLE from 16 hours ago
0 OBJECT J
1 42833U 17042J   26023.44749595  .00008235  00000-0  54534-3 0  9996
2 42833  97.4176 191.0912 0005469 225.7848 134.2932 15.07553895465196
Epoch: 2026-01-23T10:44Z
TLE epoch observation values (Epoch: 2026-01-23T10:44:23.650Z)
Latitude
0.00003°
Longitude
-92.79352°
Altitude
549.396 km
Speed
7.586 km/s
True Right ascension
12h 44m 21s
True Declination
0° 00' 00"
Sunlit
Object was in partial shadow at epoch
Visualization orbit readout
Latitude
Unknown
Longitude
Unknown
Altitude
Unknown
Speed
Unknown
Apparent Right ascension
Unknown
Apparent Declination
Unknown
Sunlit
N/A
Visualization observer readout
Local Sidereal Time
03:56:36
Azimuth
Unknown
Elevation
Unknown
Doppler factor
Unknown
Orbital elements
Apogee altitude
544.444 km
Perigee altitude
536.876 km
Semi-major axis
6,918.797 km
Eccentricity
0.00055
Inclination
97.4176°
RAAN
191.0912°
Arg. of periapsis
225.7848°
True anomaly
134.33804°
Mean anomaly
134.2932°
Eccentric anomaly
134.31562°
Mean motion
3.77135 °/min
Orbital period
95.46 mins
BSTAR
0.00054534
Loading maneuver chart data...
Computing Atmospheric mass density...
Loading historical data...
Loading historical data...
Loading historical data...
Loading historical data...
Loading historical data...
Loading historical data...
Loading historical data...

Documentation

Showing up to 5 results
|